Location: Kitchener
(43.4500°N, 80.5000°W)
Time: 09:37:34
(UTC-05:00)

ATLAS 5 CENTAUR R/B - Visible Passes

Search period start: 31 January 2015 00:00
Search period end: 10 February 2015 00:00
Orbit: 708 x 954 km, 63.4° (Epoch: 18 January)

Date Brightness Start Highest point End Pass type
(mag) Time Alt. Az. Time Alt. Az. Time Alt. Az.
31 Jan 5.5 18:42:50 10° WNW 18:46:25 16° WSW 18:49:45 10° SW visible
01 Feb 5.5 18:23:58 10° WNW 18:27:47 17° WSW 18:31:22 10° SW visible
02 Feb 5.6 18:05:08 10° WNW 18:09:08 18° WSW 18:12:56 10° SSW visible
04 Feb 3.8 06:51:42 10° S 06:56:16 36° ESE 07:01:09 10° NE visible
05 Feb 3.9 06:33:07 10° S 06:37:37 33° ESE 06:42:26 10° NE visible
06 Feb 3.9 06:14:33 10° S 06:18:58 31° ESE 06:23:42 10° NE visible
07 Feb 4.0 05:55:59 10° S 06:00:19 30° ESE 06:04:58 10° NE visible
08 Feb 4.0 05:37:26 10° S 05:41:40 28° ESE 05:46:12 10° ENE visible
09 Feb 4.0 05:18:53 10° S 05:23:02 26° ESE 05:27:28 10° ENE visible
